Location: Saint John
(45.2733°N, 66.0633°W)
Time: 12:05:27
(UTC-04:00)

BlueWalker 3 - Pass Details

Date: 29 November 2022
Orbit: 499 x 517 km, 53.2° (Epoch: 01 February)

Event Time Altitude Azimuth Distance (km) Brightness Sun altitude
Rises 19:18:43 0° 290° (WNW) 2,625 6.6 -26.6°
Reaches altitude 10° 19:21:13 10° 304° (WNW) 1,734 5.3 -27.0°
Enters shadow 19:22:58 20° 326° (NW) 1,245 4.2 -27.3°
